Location: Unspecified
(0.0000°N, 0.0000°E)
Time: 10:22:02
(UTC+02:00)

Cosmos 2219 - Visible Passes

Search period start: 26 May 2018 00:00
Search period end: 05 June 2018 00:00
Orbit: 833 x 861 km, 71.1° (Epoch: 25 May)

Date Brightness Start Highest point End Pass type
(mag) Time Alt. Az. Time Alt. Az. Time Alt. Az.
30 May 5.1 22:29:35 20° N 22:29:35 20° N 22:31:16 10° N visible
31 May 3.4 22:12:01 68° W 22:12:06 68° WNW 22:17:48 10° N visible
01 Jun 3.4 21:52:55 10° SSW 21:58:37 70° WNW 22:04:19 10° N visible
02 Jun 3.4 21:39:25 10° SSW 21:45:08 73° WNW 21:50:51 10° N visible
03 Jun 3.4 21:25:55 10° SSW 21:31:38 75° WNW 21:37:22 10° N visible
04 Jun 3.3 21:12:26 10° SSW 21:18:09 78° WNW 21:23:53 10° N visible
